Location: Gollag?dem
(16.8053°N, 80.8024°E)
Time: 10:13:45
(UTC+00:00)

GPS 2-04 Rocket1 - Pass Details

Date: 13 August 2020
Orbit: 417 x 548 km, 35.6° (Epoch: 18 September)

Event Time Altitude Azimuth Distance (km) Brightness Sun altitude
Exits shadow 23:41:56 14° 254° (WSW) 1,351 4.1 -9.6°
Maximum altitude 23:44:51 51° 328° (NNW) 574 2.8 -9.0°
Drops below altitude 10° 23:48:28 10° 46° (NE) 1,619 6.4 -8.1°
Sets 23:50:44 0° 51° (NE) 2,523 7.7 -7.6°
